Regional Weather Roundup
Issued by NWS

Home | Current Version | Previous Version | Text Only | Print | Product List | Glossary On
Versions: 1 2 3 4 5 6 7 8 9 10 11 12 13 14 15 16 17 18 19 20 21 22 23 24 25 26 27 28 29 30 31 32 33 34 35 36 37 38 39 40 41 42 43 44 45 46 47 48 49 50
000
ASUS43 KTOP 201208
RWRKS

WEATHER ROUNDUP FOR KANSAS
NATIONAL WEATHER SERVICE GOODLAND KS
700 AM CDT SAT SEP 20 2014

NOTE:  "FAIR" INDICATES FEW OR NO CLOUDS BELOW 12,000 FEET WITH NO
SIGNIFICANT WEATHER AND/OR OBSTRUCTIONS TO VISIBILITY.

KSZ001>006-013>018-027>032-041>047-201300-
NORTHWEST KANSAS

CITY           SKY/WX    TMP DP  RH WIND       PRES   REMARKS
GOODLAND       CLEAR     62  59  90 W9        30.00S
6HR MIN TEMP:  59; 6HR MAX TEMP:  69;

HAYS           CLEAR     63  57  82 SW8       29.93S
HILL CITY      CLEAR     67  62  84 SW10      29.91S
6HR MIN TEMP:  66; 6HR MAX TEMP:  74;

RUSSELL        CLEAR     67  62  84 S14       29.91R
6HR MIN TEMP:  67; 6HR MAX TEMP:  72;

$$

KSZ061>065-074>080-084>089-201300-
SOUTHWEST KANSAS

CITY           SKY/WX    TMP DP  RH WIND       PRES   REMARKS
DODGE CITY     CLEAR     63  59  87 S7        29.99R
6HR MIN TEMP:  63; 6HR MAX TEMP:  69;

ELKHART          N/A     63  59  87 S7          N/A
GARDEN CITY    CLEAR     61  60  97 S7        29.98S
6HR MIN TEMP:  61; 6HR MAX TEMP:  64;

GREAT BEND     CLEAR     66  61  82 S12       29.94F
LIBERAL        CLEAR     63  57  82 SW6       30.02S
PRATT          CLEAR     63  61  94 S8        29.98S
$$

KSZ066>073-081>083-090>101-201300-
SOUTHEAST KANSAS

CITY           SKY/WX    TMP DP  RH WIND       PRES   REMARKS
CHANUTE        PTCLDY    67  66  97 S9        29.98F FOG
6HR MIN TEMP:  65; 6HR MAX TEMP:  68;

HUTCHINSON     CLEAR     67  63  87 S6        29.96S
6HR MIN TEMP:  67; 6HR MAX TEMP:  71;

MEDICINE LODGE   N/A     66  63  90 SE5       29.98R
NEWTON         CLEAR     68  63  83 S12       29.99R
PARSONS        FOG       67  67 100 S5        30.00S VSB 1/4
6HR MIN TEMP:  66; 6HR MAX TEMP:  68;

WICHITA INTL   PTCLDY    67  64  90 S5        29.96F FOG
6HR MIN TEMP:  66; 6HR MAX TEMP:  71;

WICHITA JABRA  CLEAR     68  66  93 S9        29.97S
6HR MIN TEMP:  68; 6HR MAX TEMP:  70;

WICHITA MCCONL CLEAR     66  66 100 S7        29.98S FOG
WINFIELD       CLEAR     69  68  96 S7        29.99S
6HR MIN TEMP:  68; 6HR MAX TEMP:  70;

$$

KSZ007>012-019>026-033>040-048>060-102>105-201300-
NORTHEAST KANSAS

CITY           SKY/WX    TMP DP  RH WIND       PRES   REMARKS
CONCORDIA      CLEAR     69  64  84 SW10      29.91R
6HR MIN TEMP:  68; 6HR MAX TEMP:  72;

EMPORIA        CLEAR     68  66  93 S7        29.96R
6HR MIN TEMP:  67; 6HR MAX TEMP:  69;

LAWRENCE       PTCLDY    68  65  90 CALM      29.96R FOG
6HR MIN TEMP:  68; 6HR MAX TEMP:  69;

MANHATTAN      CLEAR     69  67  93 SW8       29.93R FOG
6HR MIN TEMP:  69; 6HR MAX TEMP:  71;

MARYSVILLE     CLEAR     68  64  88 S5        29.92R
OLATHE IND     CLEAR     67  67 100 S12       29.97R FOG
6HR MIN TEMP:  65; 6HR MAX TEMP:  67;

OLATHE EXE     CLEAR     68  66  93 SW7       29.96R FOG
6HR MIN TEMP:  66; 6HR MAX TEMP:  68;

SALINA         CLEAR     69  64  84 S13       29.92S
6HR MIN TEMP:  68; 6HR MAX TEMP:  73;

TOPEKA BILLARD PTCLDY    69  68  96 CALM      29.95R FOG
6HR MIN TEMP:  69; 6HR MAX TEMP:  71;

TOPEKA FORBES  CLEAR     68  66  93 S8        29.95R FOG
6HR MIN TEMP:  67; 6HR MAX TEMP:  68;

$$



USA.gov is the U.S. government's official web portal to all federal, state and local government web resources and services.